Time,TemperatureF,DewpointF,PressureIn,WindDirection,WindDirectionDegrees,WindSpeedMPH,WindSpeedGustMPH,Humidity,HourlyPrecipIn,Conditions,Clouds,dailyrainin,SoftwareType,DateUTC
2013-10-17 00:00:00,62.8,59.6,29.94,WNW,292,0.0,0.0,89,0.00,,,0.00,WUHU21623XXSP,2013-10-17 04:00:00,
2013-10-17 00:05:00,62.8,59.6,29.94,WNW,292,0.0,0.0,89,0.00,,,0.00,WUHU21623XXSP,2013-10-17 04:05:00,
2013-10-17 00:10:00,62.8,59.6,29.94,East,90,0.0,0.0,89,0.00,,,0.00,WUHU21623XXSP,2013-10-17 04:10:00,
2013-10-17 00:15:00,62.8,59.6,29.93,NNE,22,0.0,0.0,89,0.00,,,0.00,WUHU21623XXSP,2013-10-17 04:15:00,
2013-10-17 00:20:00,62.8,59.6,29.93,NNE,22,0.0,0.0,89,0.00,,,0.00,WUHU21623XXSP,2013-10-17 04:20:00,
2013-10-17 00:25:00,62.8,59.6,29.93,NNE,22,0.0,0.0,89,0.00,,,0.00,WUHU21623XXSP,2013-10-17 04:25:00,
2013-10-17 00:30:00,62.8,59.6,29.93,NNE,22,0.0,0.0,89,0.00,,,0.00,WUHU21623XXSP,2013-10-17 04:30:00,
2013-10-17 00:35:00,62.8,59.6,29.93,NNE,22,0.0,0.0,89,0.00,,,0.00,WUHU21623XXSP,2013-10-17 04:35:00,
2013-10-17 00:40:00,62.8,59.6,29.92,East,90,0.0,0.0,89,0.00,,,0.00,WUHU21623XXSP,2013-10-17 04:40:00,
2013-10-17 00:45:00,62.8,59.6,29.93,East,90,0.0,0.0,89,0.00,,,0.00,WUHU21623XXSP,2013-10-17 04:45:00,
2013-10-17 00:50:00,62.8,59.6,29.92,East,90,0.0,0.0,89,0.00,,,0.00,WUHU21623XXSP,2013-10-17 04:50:00,
2013-10-17 00:55:00,62.8,59.6,29.92,East,90,0.0,0.0,89,0.00,,,0.00,WUHU21623XXSP,2013-10-17 04:55:00,
2013-10-17 01:01:00,62.8,59.6,29.92,East,90,0.0,0.0,89,0.00,,,0.00,WUHU21623XXSP,2013-10-17 05:01:00,
2013-10-17 01:15:00,62.8,59.6,29.92,NNE,22,0.0,0.0,89,0.00,,,0.00,WUHU21623XXSP,2013-10-17 05:15:00,
2013-10-17 01:20:00,62.6,59.4,29.92,NNE,22,0.0,0.0,89,0.00,,,0.00,WUHU21623XXSP,2013-10-17 05:20:00,
2013-10-17 01:25:00,62.6,59.4,29.92,ESE,112,0.0,0.0,89,0.00,,,0.00,WUHU21623XXSP,2013-10-17 05:25:00,
2013-10-17 01:30:00,62.6,59.4,29.92,ESE,112,0.0,0.0,89,0.00,,,0.00,WUHU21623XXSP,2013-10-17 05:30:00,
2013-10-17 01:35:00,62.6,59.4,29.92,East,90,0.0,0.0,89,0.00,,,0.00,WUHU21623XXSP,2013-10-17 05:35:00,
2013-10-17 01:40:00,62.6,59.4,29.92,East,90,0.0,0.0,89,0.00,,,0.00,WUHU21623XXSP,2013-10-17 05:40:00,
2013-10-17 01:45:00,62.6,59.4,29.92,East,90,0.0,0.0,89,0.00,,,0.00,WUHU21623XXSP,2013-10-17 05:45:00,
2013-10-17 01:50:00,62.6,59.4,29.92,East,90,0.0,0.0,89,0.00,,,0.00,WUHU21623XXSP,2013-10-17 05:50:00,
2013-10-17 01:55:00,62.6,59.4,29.92,East,90,0.0,0.0,89,0.00,,,0.00,WUHU21623XXSP,2013-10-17 05:55:00,
2013-10-17 02:00:00,62.4,59.2,29.92,ESE,112,0.0,0.0,89,0.00,,,0.00,WUHU21623XXSP,2013-10-17 06:00:00,
2013-10-17 02:05:00,62.4,59.2,29.92,ESE,112,0.0,0.0,89,0.00,,,0.00,WUHU21623XXSP,2013-10-17 06:05:00,
2013-10-17 02:10:00,62.4,59.2,29.92,ESE,112,0.0,0.0,89,0.00,,,0.00,WUHU21623XXSP,2013-10-17 06:10:00,
2013-10-17 02:15:00,62.4,59.2,29.92,ESE,112,0.0,0.0,89,0.00,,,0.00,WUHU21623XXSP,2013-10-17 06:15:00,
2013-10-17 02:20:00,62.4,59.2,29.91,West,270,0.0,0.0,89,0.00,,,0.00,WUHU21623XXSP,2013-10-17 06:20:00,
2013-10-17 02:25:00,62.4,59.2,29.91,SSW,202,0.0,0.0,89,0.00,,,0.00,WUHU21623XXSP,2013-10-17 06:25:00,
2013-10-17 02:30:00,62.4,59.2,29.91,West,270,0.0,0.0,89,0.00,,,0.00,WUHU21623XXSP,2013-10-17 06:30:00,
2013-10-17 02:35:00,62.4,59.2,29.91,ESE,112,0.0,0.0,89,0.00,,,0.00,WUHU21623XXSP,2013-10-17 06:35:00,
2013-10-17 02:40:00,62.4,59.2,29.91,South,180,0.0,0.0,89,0.00,,,0.00,WUHU21623XXSP,2013-10-17 06:40:00,
2013-10-17 02:45:00,62.4,59.2,29.91,ESE,112,0.0,0.0,89,0.00,,,0.00,WUHU21623XXSP,2013-10-17 06:45:00,
2013-10-17 02:51:00,62.4,59.2,29.91,West,270,0.0,0.0,89,0.00,,,0.00,WUHU21623XXSP,2013-10-17 06:51:00,
2013-10-17 02:56:00,62.4,59.2,29.91,SSW,202,0.0,0.0,89,0.00,,,0.00,WUHU21623XXSP,2013-10-17 06:56:00,
2013-10-17 03:01:00,62.6,59.4,29.90,SSW,202,0.0,0.0,89,0.00,,,0.00,WUHU21623XXSP,2013-10-17 07:01:00,
2013-10-17 03:06:00,62.4,59.2,29.90,SSW,202,0.0,0.0,89,0.00,,,0.00,WUHU21623XXSP,2013-10-17 07:06:00,
2013-10-17 03:11:00,62.4,59.2,29.90,SSW,202,0.0,0.0,89,0.00,,,0.00,WUHU21623XXSP,2013-10-17 07:11:00,
2013-10-17 03:16:00,62.4,59.2,29.90,East,90,0.0,0.0,89,0.00,,,0.00,WUHU21623XXSP,2013-10-17 07:16:00,
2013-10-17 03:21:00,62.4,59.2,29.90,ESE,112,0.0,0.0,89,0.00,,,0.00,WUHU21623XXSP,2013-10-17 07:21:00,
2013-10-17 03:26:00,62.4,59.2,29.90,ESE,112,0.0,0.0,89,0.03,,,0.03,WUHU21623XXSP,2013-10-17 07:26:00,
2013-10-17 03:31:00,62.4,59.2,29.89,ESE,112,0.0,0.0,89,0.03,,,0.03,WUHU21623XXSP,2013-10-17 07:31:00,
2013-10-17 03:36:00,62.4,59.2,29.89,ESE,112,0.0,0.0,89,0.03,,,0.03,WUHU21623XXSP,2013-10-17 07:36:00,
2013-10-17 03:41:00,62.4,59.2,29.89,ESE,112,0.0,0.0,89,0.03,,,0.03,WUHU21623XXSP,2013-10-17 07:41:00,
2013-10-17 03:46:00,62.4,59.2,29.89,ESE,112,0.0,0.0,89,0.03,,,0.03,WUHU21623XXSP,2013-10-17 07:46:00,
2013-10-17 03:51:00,62.4,59.2,29.89,South,180,0.0,0.0,89,0.03,,,0.03,WUHU21623XXSP,2013-10-17 07:51:00,
2013-10-17 03:56:00,62.4,59.2,29.89,ESE,112,0.0,0.0,89,0.03,,,0.03,WUHU21623XXSP,2013-10-17 07:56:00,
2013-10-17 04:01:00,62.4,59.2,29.89,ESE,112,0.0,0.0,89,0.03,,,0.03,WUHU21623XXSP,2013-10-17 08:01:00,
2013-10-17 04:06:00,62.4,59.2,29.88,ESE,112,0.0,0.0,89,0.03,,,0.03,WUHU21623XXSP,2013-10-17 08:06:00,
2013-10-17 04:12:00,62.4,59.2,29.88,ESE,112,0.0,0.0,89,0.03,,,0.03,WUHU21623XXSP,2013-10-17 08:12:00,
2013-10-17 04:17:00,62.4,59.2,29.88,ESE,112,0.0,0.0,89,0.03,,,0.03,WUHU21623XXSP,2013-10-17 08:17:00,
2013-10-17 04:22:00,62.4,59.2,29.88,East,90,0.0,0.0,89,0.03,,,0.03,WUHU21623XXSP,2013-10-17 08:22:00,
2013-10-17 04:27:00,62.4,59.2,29.88,ESE,112,0.0,0.0,89,0.00,,,0.03,WUHU21623XXSP,2013-10-17 08:27:00,
2013-10-17 04:32:00,62.4,59.2,29.88,SSW,202,0.0,0.0,89,0.00,,,0.03,WUHU21623XXSP,2013-10-17 08:32:00,
2013-10-17 04:37:00,62.4,59.2,29.88,NNE,22,0.0,0.0,89,0.00,,,0.03,WUHU21623XXSP,2013-10-17 08:37:00,
2013-10-17 04:42:00,62.4,59.2,29.88,ESE,112,0.0,0.0,89,0.00,,,0.03,WUHU21623XXSP,2013-10-17 08:42:00,
2013-10-17 04:47:00,62.4,59.2,29.88,ESE,112,0.0,0.0,89,0.00,,,0.03,WUHU21623XXSP,2013-10-17 08:47:00,
2013-10-17 04:52:00,62.4,59.2,29.88,South,180,0.0,0.0,89,0.00,,,0.03,WUHU21623XXSP,2013-10-17 08:52:00,
2013-10-17 04:57:00,62.4,59.2,29.87,East,90,0.0,0.0,89,0.00,,,0.03,WUHU21623XXSP,2013-10-17 08:57:00,
2013-10-17 05:02:00,62.4,59.2,29.87,WNW,292,0.0,0.0,89,0.00,,,0.03,WUHU21623XXSP,2013-10-17 09:02:00,
2013-10-17 05:07:00,62.4,59.2,29.87,West,270,0.0,2.4,89,0.00,,,0.03,WUHU21623XXSP,2013-10-17 09:07:00,
2013-10-17 05:12:00,62.4,59.2,29.87,ESE,112,0.0,2.4,89,0.00,,,0.03,WUHU21623XXSP,2013-10-17 09:12:00,
2013-10-17 05:17:00,62.4,59.2,29.87,South,180,0.0,0.0,89,0.00,,,0.03,WUHU21623XXSP,2013-10-17 09:17:00,
2013-10-17 05:22:00,62.6,59.4,29.87,WNW,292,0.0,0.0,89,0.00,,,0.03,WUHU21623XXSP,2013-10-17 09:22:00,
2013-10-17 05:27:00,62.6,59.4,29.88,East,90,0.0,0.0,89,0.00,,,0.03,WUHU21623XXSP,2013-10-17 09:27:00,
2013-10-17 05:32:00,62.6,59.4,29.88,SSW,202,0.0,0.0,89,0.00,,,0.03,WUHU21623XXSP,2013-10-17 09:32:00,
2013-10-17 05:37:00,62.8,59.6,29.87,SSW,202,0.0,0.0,89,0.00,,,0.03,WUHU21623XXSP,2013-10-17 09:37:00,
2013-10-17 05:43:00,62.8,59.6,29.87,SSW,202,0.0,0.0,89,0.00,,,0.03,WUHU21623XXSP,2013-10-17 09:43:00,
2013-10-17 05:48:00,62.8,59.6,29.88,SSW,202,0.0,0.0,89,0.00,,,0.03,WUHU21623XXSP,2013-10-17 09:48:00,
2013-10-17 05:53:00,62.8,59.6,29.88,SSW,202,0.0,1.9,89,0.00,,,0.03,WUHU21623XXSP,2013-10-17 09:53:00,
2013-10-17 05:58:00,62.8,59.6,29.88,ESE,112,0.0,1.9,89,0.00,,,0.03,WUHU21623XXSP,2013-10-17 09:58:00,
2013-10-17 06:03:00,62.8,59.6,29.88,WNW,292,0.0,0.0,89,0.00,,,0.03,WUHU21623XXSP,2013-10-17 10:03:00,
2013-10-17 06:08:00,62.8,59.6,29.88,West,270,2.9,3.3,89,0.03,,,0.05,WUHU21623XXSP,2013-10-17 10:08:00,
2013-10-17 06:13:00,62.8,59.6,29.88,South,180,0.0,3.3,89,0.03,,,0.05,WUHU21623XXSP,2013-10-17 10:13:00,
2013-10-17 06:18:00,62.8,59.6,29.87,SSW,202,0.0,3.3,89,0.03,,,0.05,WUHU21623XXSP,2013-10-17 10:18:00,
2013-10-17 06:23:00,62.8,59.6,29.88,South,180,1.7,5.4,89,0.03,,,0.05,WUHU21623XXSP,2013-10-17 10:23:00,
2013-10-17 06:28:00,62.8,59.6,29.87,NNE,22,0.0,5.4,89,0.03,,,0.05,WUHU21623XXSP,2013-10-17 10:28:00,
2013-10-17 06:33:00,62.8,59.6,29.87,SSW,202,0.0,1.9,89,0.03,,,0.05,WUHU21623XXSP,2013-10-17 10:33:00,
2013-10-17 06:38:00,62.8,59.6,29.87,ESE,112,0.0,5.7,89,0.03,,,0.05,WUHU21623XXSP,2013-10-17 10:38:00,
2013-10-17 06:43:00,62.8,59.6,29.87,ESE,112,0.0,5.7,89,0.03,,,0.05,WUHU21623XXSP,2013-10-17 10:43:00,
2013-10-17 06:48:00,62.8,59.6,29.87,South,180,0.0,1.9,89,0.03,,,0.05,WUHU21623XXSP,2013-10-17 10:48:00,
2013-10-17 06:53:00,62.8,59.6,29.87,SSW,202,0.0,1.9,89,0.03,,,0.05,WUHU21623XXSP,2013-10-17 10:53:00,
2013-10-17 06:59:00,62.8,59.6,29.87,South,180,0.0,4.4,89,0.03,,,0.05,WUHU21623XXSP,2013-10-17 10:59:00,
2013-10-17 07:04:00,62.8,59.6,29.87,North,0,0.0,4.4,89,0.03,,,0.05,WUHU21623XXSP,2013-10-17 11:04:00,
2013-10-17 07:09:00,62.8,59.6,29.87,South,180,0.0,0.0,89,0.00,,,0.05,WUHU21623XXSP,2013-10-17 11:09:00,
2013-10-17 07:14:00,62.8,59.6,29.87,South,180,0.0,3.0,89,0.00,,,0.05,WUHU21623XXSP,2013-10-17 11:14:00,
2013-10-17 07:19:00,62.8,59.6,29.87,East,90,0.0,3.0,89,0.00,,,0.05,WUHU21623XXSP,2013-10-17 11:19:00,
2013-10-17 07:24:00,62.8,59.6,29.87,SSW,202,0.0,0.0,89,0.00,,,0.05,WUHU21623XXSP,2013-10-17 11:24:00,
2013-10-17 07:29:00,62.8,59.6,29.87,West,270,0.0,0.0,89,0.00,,,0.05,WUHU21623XXSP,2013-10-17 11:29:00,
2013-10-17 07:34:00,62.8,59.6,29.87,SSW,202,0.0,0.0,89,0.00,,,0.05,WUHU21623XXSP,2013-10-17 11:34:00,
2013-10-17 07:39:00,62.8,59.6,29.87,South,180,2.1,2.4,89,0.00,,,0.05,WUHU21623XXSP,2013-10-17 11:39:00,
2013-10-17 07:44:00,62.8,59.6,29.87,SSW,202,1.7,2.4,89,0.00,,,0.05,WUHU21623XXSP,2013-10-17 11:44:00,
2013-10-17 07:49:00,63.0,59.7,29.87,SSW,202,0.0,2.4,89,0.00,,,0.05,WUHU21623XXSP,2013-10-17 11:49:00,
2013-10-17 07:54:00,63.0,59.7,29.87,South,180,0.0,1.9,89,0.00,,,0.05,WUHU21623XXSP,2013-10-17 11:54:00,
2013-10-17 07:59:00,62.8,59.6,29.87,South,180,0.0,0.0,89,0.00,,,0.05,WUHU21623XXSP,2013-10-17 11:59:00,
2013-10-17 08:04:00,63.0,59.7,29.87,ESE,112,0.0,0.0,89,0.00,,,0.05,WUHU21623XXSP,2013-10-17 12:04:00,
2013-10-17 08:09:00,63.0,59.7,29.87,SSW,202,0.0,0.0,89,0.00,,,0.05,WUHU21623XXSP,2013-10-17 12:09:00,
2013-10-17 08:15:00,63.0,59.7,29.87,SSW,202,0.0,0.0,89,0.00,,,0.05,WUHU21623XXSP,2013-10-17 12:15:00,
2013-10-17 08:20:00,63.0,59.7,29.87,ESE,112,0.0,0.0,89,0.00,,,0.05,WUHU21623XXSP,2013-10-17 12:20:00,
2013-10-17 08:25:00,63.0,59.7,29.87,West,270,0.0,1.7,89,0.00,,,0.05,WUHU21623XXSP,2013-10-17 12:25:00,
2013-10-17 08:30:00,63.0,59.7,29.87,South,180,0.0,1.7,89,0.00,,,0.05,WUHU21623XXSP,2013-10-17 12:30:00,
2013-10-17 08:35:00,63.0,59.7,29.87,West,270,0.0,0.0,89,0.00,,,0.05,WUHU21623XXSP,2013-10-17 12:35:00,
2013-10-17 08:40:00,63.1,59.9,29.87,South,180,3.3,3.8,89,0.00,,,0.05,WUHU21623XXSP,2013-10-17 12:40:00,
2013-10-17 08:45:00,63.1,59.9,29.87,ESE,112,0.0,3.8,89,0.00,,,0.05,WUHU21623XXSP,2013-10-17 12:45:00,
2013-10-17 08:50:00,63.1,59.9,29.87,South,180,0.0,3.8,89,0.00,,,0.05,WUHU21623XXSP,2013-10-17 12:50:00,
2013-10-17 08:55:00,63.1,59.9,29.87,SSW,202,0.0,1.7,89,0.00,,,0.05,WUHU21623XXSP,2013-10-17 12:55:00,
2013-10-17 09:00:00,63.1,59.9,29.87,ESE,112,0.0,1.7,89,0.00,,,0.05,WUHU21623XXSP,2013-10-17 13:00:00,
2013-10-17 09:05:00,63.1,59.9,29.88,West,270,0.0,0.0,89,0.00,,,0.05,WUHU21623XXSP,2013-10-17 13:05:00,
2013-10-17 09:10:00,63.3,60.1,29.88,West,270,1.4,1.7,89,0.00,,,0.05,WUHU21623XXSP,2013-10-17 13:10:00,
2013-10-17 09:15:00,63.1,59.9,29.88,West,270,0.0,2.4,89,0.00,,,0.05,WUHU21623XXSP,2013-10-17 13:15:00,
2013-10-17 09:20:00,63.1,59.9,29.88,SSW,202,0.0,2.4,89,0.00,,,0.05,WUHU21623XXSP,2013-10-17 13:20:00,
2013-10-17 09:25:00,63.3,60.1,29.88,SSW,202,1.4,1.7,89,0.00,,,0.05,WUHU21623XXSP,2013-10-17 13:25:00,
2013-10-17 09:30:00,63.3,60.1,29.88,South,180,0.0,1.7,89,0.00,,,0.05,WUHU21623XXSP,2013-10-17 13:30:00,
2013-10-17 09:35:00,63.3,60.1,29.89,SSW,202,0.0,1.7,89,0.00,,,0.05,WUHU21623XXSP,2013-10-17 13:35:00,
2013-10-17 09:40:00,63.3,60.1,29.89,SSW,202,1.7,1.9,89,0.00,,,0.05,WUHU21623XXSP,2013-10-17 13:40:00,
2013-10-17 09:45:00,63.3,60.1,29.89,SSW,202,0.0,1.9,89,0.00,,,0.05,WUHU21623XXSP,2013-10-17 13:45:00,
2013-10-17 09:50:00,63.5,60.3,29.89,SSW,202,1.4,1.9,89,0.00,,,0.05,WUHU21623XXSP,2013-10-17 13:50:00,
2013-10-17 09:56:00,63.5,60.3,29.89,SSW,202,0.0,3.8,89,0.00,,,0.05,WUHU21623XXSP,2013-10-17 13:56:00,
2013-10-17 10:01:00,63.5,60.3,29.89,SSW,202,0.0,3.8,89,0.00,,,0.05,WUHU21623XXSP,2013-10-17 14:01:00,
2013-10-17 10:06:00,63.7,60.5,29.89,SSW,202,0.0,0.0,89,0.00,,,0.05,WUHU21623XXSP,2013-10-17 14:06:00,
2013-10-17 10:11:00,63.7,60.5,29.89,SSW,202,0.0,1.3,89,0.00,,,0.05,WUHU21623XXSP,2013-10-17 14:11:00,
2013-10-17 10:16:00,63.7,60.5,29.89,South,180,0.0,1.3,89,0.00,,,0.05,WUHU21623XXSP,2013-10-17 14:16:00,
2013-10-17 10:21:00,63.9,60.6,29.90,SSW,202,0.0,0.0,89,0.00,,,0.05,WUHU21623XXSP,2013-10-17 14:21:00,
2013-10-17 10:26:00,63.7,60.5,29.89,SSW,202,0.0,0.0,89,0.03,,,0.08,WUHU21623XXSP,2013-10-17 14:26:00,
2013-10-17 10:31:00,63.9,60.6,29.90,SSW,202,0.0,0.0,89,0.03,,,0.08,WUHU21623XXSP,2013-10-17 14:31:00,
2013-10-17 10:36:00,64.0,60.8,29.89,SSW,202,0.0,1.9,89,0.03,,,0.08,WUHU21623XXSP,2013-10-17 14:36:00,
2013-10-17 10:41:00,64.0,60.8,29.89,West,270,1.2,4.6,89,0.03,,,0.08,WUHU21623XXSP,2013-10-17 14:41:00,
2013-10-17 10:46:00,64.2,61.0,29.89,SSW,202,0.0,4.6,89,0.03,,,0.08,WUHU21623XXSP,2013-10-17 14:46:00,
2013-10-17 10:51:00,64.6,61.3,29.89,West,270,2.1,2.4,89,0.03,,,0.08,WUHU21623XXSP,2013-10-17 14:51:00,
2013-10-17 10:56:00,64.6,61.3,29.89,WNW,292,0.0,2.7,89,0.03,,,0.08,WUHU21623XXSP,2013-10-17 14:56:00,
2013-10-17 11:01:00,64.6,61.3,29.89,South,180,1.4,2.7,89,0.03,,,0.08,WUHU21623XXSP,2013-10-17 15:01:00,
2013-10-17 11:06:00,64.8,61.5,29.89,South,180,0.0,1.7,89,0.03,,,0.08,WUHU21623XXSP,2013-10-17 15:06:00,
2013-10-17 11:11:00,64.8,61.5,29.88,WNW,292,0.0,1.7,89,0.03,,,0.08,WUHU21623XXSP,2013-10-17 15:11:00,
2013-10-17 11:16:00,64.9,61.7,29.88,SSW,202,0.0,0.0,89,0.03,,,0.08,WUHU21623XXSP,2013-10-17 15:16:00,
2013-10-17 11:21:00,65.1,61.8,29.89,North,0,2.3,3.0,89,0.03,,,0.08,WUHU21623XXSP,2013-10-17 15:21:00,
2013-10-17 11:26:00,65.1,61.8,29.89,SSW,202,0.0,3.0,89,0.00,,,0.08,WUHU21623XXSP,2013-10-17 15:26:00,
2013-10-17 11:32:00,65.1,61.8,29.89,South,180,1.7,2.7,89,0.00,,,0.08,WUHU21623XXSP,2013-10-17 15:32:00,
2013-10-17 11:37:00,65.1,61.8,29.89,ESE,112,0.0,2.4,89,0.00,,,0.08,WUHU21623XXSP,2013-10-17 15:37:00,
2013-10-17 11:42:00,65.1,61.8,29.88,West,270,0.0,1.9,89,0.00,,,0.08,WUHU21623XXSP,2013-10-17 15:42:00,
2013-10-17 11:46:00,65.5,62.2,29.88,West,270,0.0,0.0,89,0.00,,,0.08,WUHU21623XXSP,2013-10-17 15:46:00,
2013-10-17 11:47:00,65.5,62.2,29.88,West,270,0.0,0.0,89,0.00,,,0.08,WUHU21623XXSP,2013-10-17 15:47:00,
2013-10-17 11:52:00,65.5,62.2,29.88,West,270,0.0,0.0,89,0.00,,,0.08,WUHU21623XXSP,2013-10-17 15:52:00,
2013-10-17 11:58:00,65.8,62.5,29.88,WNW,292,0.0,3.3,89,0.00,,,0.08,WUHU21623XXSP,2013-10-17 15:58:00,
2013-10-17 12:06:00,66.0,62.6,29.88,SSW,202,3.8,4.4,89,0.00,,,0.08,WUHU21623XXSP,2013-10-17 16:06:00,
2013-10-17 12:11:00,66.0,62.6,29.89,West,270,0.0,4.4,89,0.00,,,0.08,WUHU21623XXSP,2013-10-17 16:11:00,
2013-10-17 12:17:00,66.0,62.6,29.88,WNW,292,0.0,4.4,89,0.00,,,0.08,WUHU21623XXSP,2013-10-17 16:17:00,
2013-10-17 12:22:00,65.8,62.5,29.88,North,0,0.0,1.9,89,0.00,,,0.08,WUHU21623XXSP,2013-10-17 16:22:00,
2013-10-17 12:27:00,66.0,62.6,29.88,SSW,202,0.0,1.3,89,0.00,,,0.08,WUHU21623XXSP,2013-10-17 16:27:00,
2013-10-17 12:32:00,66.0,62.6,29.88,South,180,0.0,1.3,89,0.00,,,0.08,WUHU21623XXSP,2013-10-17 16:32:00,
2013-10-17 12:37:00,66.6,63.2,29.88,West,270,0.0,0.0,89,0.00,,,0.08,WUHU21623XXSP,2013-10-17 16:37:00,
2013-10-17 12:42:00,66.9,63.5,29.88,South,180,0.0,0.0,89,0.00,,,0.08,WUHU21623XXSP,2013-10-17 16:42:00,
2013-10-17 12:47:00,66.9,63.5,29.88,SSW,202,3.3,3.8,89,0.00,,,0.08,WUHU21623XXSP,2013-10-17 16:47:00,
2013-10-17 12:52:00,67.3,63.9,29.88,SSW,202,0.0,3.8,89,0.00,,,0.08,WUHU21623XXSP,2013-10-17 16:52:00,
2013-10-17 12:57:00,67.8,64.4,29.88,West,270,1.7,3.8,89,0.00,,,0.08,WUHU21623XXSP,2013-10-17 16:57:00,
2013-10-17 13:02:00,68.0,64.6,29.88,SSW,202,2.1,2.4,89,0.00,,,0.08,WUHU21623XXSP,2013-10-17 17:02:00,
2013-10-17 13:07:00,67.8,64.4,29.88,North,0,1.7,2.4,89,0.00,,,0.08,WUHU21623XXSP,2013-10-17 17:07:00,
2013-10-17 13:12:00,67.6,64.3,29.89,WNW,292,0.0,2.4,89,0.00,,,0.08,WUHU21623XXSP,2013-10-17 17:12:00,
2013-10-17 13:17:00,67.1,63.7,29.89,WNW,292,0.0,3.0,89,0.00,,,0.08,WUHU21623XXSP,2013-10-17 17:17:00,
2013-10-17 13:22:00,67.1,63.7,29.89,NNE,22,0.0,3.0,89,0.00,,,0.08,WUHU21623XXSP,2013-10-17 17:22:00,
2013-10-17 13:28:00,67.3,63.6,29.88,West,270,0.0,1.9,88,0.00,,,0.08,WUHU21623XXSP,2013-10-17 17:28:00,
2013-10-17 13:33:00,67.6,63.9,29.88,North,0,0.0,0.0,88,0.00,,,0.08,WUHU21623XXSP,2013-10-17 17:33:00,
2013-10-17 13:38:00,68.2,64.5,29.88,WNW,292,1.7,1.9,88,0.00,,,0.08,WUHU21623XXSP,2013-10-17 17:38:00,
2013-10-17 13:43:00,68.2,64.5,29.89,NNE,22,0.0,1.9,88,0.00,,,0.08,WUHU21623XXSP,2013-10-17 17:43:00,
2013-10-17 13:48:00,67.8,63.8,29.89,North,0,0.0,1.9,87,0.00,,,0.08,WUHU21623XXSP,2013-10-17 17:48:00,
2013-10-17 13:53:00,66.9,62.6,29.89,South,180,3.3,3.8,86,0.00,,,0.08,WUHU21623XXSP,2013-10-17 17:53:00,
2013-10-17 13:58:00,66.4,62.0,29.89,West,270,0.0,3.8,86,0.00,,,0.08,WUHU21623XXSP,2013-10-17 17:58:00,
2013-10-17 14:03:00,66.4,62.0,29.89,WNW,292,0.0,3.8,86,0.00,,,0.08,WUHU21623XXSP,2013-10-17 18:03:00,
2013-10-17 14:08:00,66.0,62.0,29.89,North,0,1.7,1.9,87,0.00,,,0.08,WUHU21623XXSP,2013-10-17 18:08:00,
2013-10-17 14:13:00,65.5,61.5,29.88,WNW,292,0.0,1.9,87,0.00,,,0.08,WUHU21623XXSP,2013-10-17 18:13:00,
2013-10-17 14:18:00,65.1,61.2,29.89,WNW,292,1.4,2.4,87,0.00,,,0.08,WUHU21623XXSP,2013-10-17 18:18:00,
2013-10-17 14:23:00,65.1,61.2,29.89,North,0,0.0,2.4,87,0.00,,,0.08,WUHU21623XXSP,2013-10-17 18:23:00,
2013-10-17 14:28:00,65.1,61.2,29.89,North,0,0.0,1.7,87,0.00,,,0.08,WUHU21623XXSP,2013-10-17 18:28:00,
2013-10-17 14:33:00,65.5,60.8,29.89,WNW,292,1.4,1.9,85,0.00,,,0.08,WUHU21623XXSP,2013-10-17 18:33:00,
2013-10-17 14:39:00,65.5,60.8,29.89,West,270,0.0,1.9,85,0.00,,,0.08,WUHU21623XXSP,2013-10-17 18:39:00,
2013-10-17 14:44:00,65.5,60.5,29.89,West,270,2.9,3.3,84,0.00,,,0.08,WUHU21623XXSP,2013-10-17 18:44:00,
2013-10-17 14:49:00,65.3,60.7,29.89,WNW,292,0.0,3.3,85,0.00,,,0.08,WUHU21623XXSP,2013-10-17 18:49:00,
2013-10-17 14:54:00,65.5,60.5,29.89,WNW,292,1.4,3.3,84,0.00,,,0.08,WUHU21623XXSP,2013-10-17 18:54:00,
2013-10-17 14:59:00,65.5,60.5,29.89,WNW,292,0.0,1.7,84,0.00,,,0.08,WUHU21623XXSP,2013-10-17 18:59:00,
2013-10-17 15:04:00,66.4,61.4,29.89,WNW,292,1.4,1.7,84,0.00,,,0.08,WUHU21623XXSP,2013-10-17 19:04:00,
2013-10-17 15:09:00,67.8,61.8,29.89,North,0,0.0,1.7,81,0.00,,,0.08,WUHU21623XXSP,2013-10-17 19:09:00,
2013-10-17 15:14:00,67.3,60.2,29.89,North,0,0.0,1.7,78,0.00,,,0.08,WUHU21623XXSP,2013-10-17 19:14:00,
2013-10-17 15:19:00,66.7,60.4,29.89,WNW,292,0.0,1.7,80,0.00,,,0.08,WUHU21623XXSP,2013-10-17 19:19:00,
2013-10-17 15:24:00,66.2,59.9,29.89,West,270,0.0,0.0,80,0.00,,,0.08,WUHU21623XXSP,2013-10-17 19:24:00,
2013-10-17 15:29:00,65.8,59.5,29.89,West,270,0.0,1.3,80,0.00,,,0.08,WUHU21623XXSP,2013-10-17 19:29:00,
2013-10-17 15:34:00,65.5,59.5,29.89,WNW,292,1.7,1.9,81,0.00,,,0.08,WUHU21623XXSP,2013-10-17 19:34:00,
2013-10-17 15:39:00,65.1,59.5,29.89,WNW,292,0.0,1.9,82,0.00,,,0.08,WUHU21623XXSP,2013-10-17 19:39:00,
2013-10-17 15:44:00,64.2,58.6,29.90,North,0,0.0,1.9,82,0.00,,,0.08,WUHU21623XXSP,2013-10-17 19:44:00,
2013-10-17 15:49:00,64.0,58.8,29.90,WNW,292,0.0,0.0,83,0.00,,,0.08,WUHU21623XXSP,2013-10-17 19:49:00,
2013-10-17 15:54:00,63.7,58.4,29.90,WNW,292,0.0,0.0,83,0.00,,,0.08,WUHU21623XXSP,2013-10-17 19:54:00,
2013-10-17 15:59:00,63.7,58.4,29.90,West,270,0.0,0.0,83,0.00,,,0.08,WUHU21623XXSP,2013-10-17 19:59:00,
2013-10-17 16:04:00,63.7,58.1,29.90,WNW,292,1.4,1.7,82,0.00,,,0.08,WUHU21623XXSP,2013-10-17 20:04:00,
2013-10-17 16:09:00,64.0,58.4,29.90,WNW,292,0.0,1.7,82,0.00,,,0.08,WUHU21623XXSP,2013-10-17 20:09:00,
2013-10-17 16:14:00,63.7,58.1,29.90,WNW,292,0.0,1.7,82,0.00,,,0.08,WUHU21623XXSP,2013-10-17 20:14:00,
2013-10-17 16:20:00,63.7,58.1,29.90,North,0,0.0,0.0,82,0.00,,,0.08,WUHU21623XXSP,2013-10-17 20:20:00,
2013-10-17 16:25:00,63.7,57.7,29.91,WNW,292,0.0,1.3,81,0.00,,,0.08,WUHU21623XXSP,2013-10-17 20:25:00,
2013-10-17 16:30:00,63.7,57.7,29.91,North,0,0.0,1.3,81,0.00,,,0.08,WUHU21623XXSP,2013-10-17 20:30:00,
2013-10-17 16:35:00,63.7,57.4,29.90,North,0,1.2,1.3,80,0.00,,,0.08,WUHU21623XXSP,2013-10-17 20:35:00,
2013-10-17 16:40:00,63.5,57.5,29.90,West,270,0.0,1.3,81,0.00,,,0.08,WUHU21623XXSP,2013-10-17 20:40:00,
2013-10-17 16:45:00,63.3,57.7,29.90,WNW,292,0.0,0.0,82,0.00,,,0.08,WUHU21623XXSP,2013-10-17 20:45:00,
2013-10-17 16:50:00,63.1,57.5,29.90,WNW,292,0.0,0.0,82,0.00,,,0.08,WUHU21623XXSP,2013-10-17 20:50:00,
2013-10-17 16:55:00,63.1,57.5,29.91,North,0,0.0,0.0,82,0.00,,,0.08,WUHU21623XXSP,2013-10-17 20:55:00,
2013-10-17 17:00:00,62.8,57.2,29.91,North,0,0.0,0.0,82,0.00,,,0.08,WUHU21623XXSP,2013-10-17 21:00:00,
2013-10-17 17:05:00,62.6,57.3,29.90,North,0,0.0,0.0,83,0.00,,,0.08,WUHU21623XXSP,2013-10-17 21:05:00,
2013-10-17 17:10:00,62.6,57.3,29.91,WNW,292,0.0,0.0,83,0.00,,,0.08,WUHU21623XXSP,2013-10-17 21:10:00,
2013-10-17 17:15:00,62.8,57.5,29.91,WNW,292,0.0,0.0,83,0.00,,,0.08,WUHU21623XXSP,2013-10-17 21:15:00,
2013-10-17 17:20:00,62.8,57.5,29.91,SSW,202,2.6,3.0,83,0.00,,,0.08,WUHU21623XXSP,2013-10-17 21:20:00,
2013-10-17 17:25:00,63.0,57.3,29.91,North,0,0.0,3.0,82,0.00,,,0.08,WUHU21623XXSP,2013-10-17 21:25:00,
2013-10-17 17:31:00,63.0,57.3,29.91,North,0,0.0,3.0,82,0.00,,,0.08,WUHU21623XXSP,2013-10-17 21:31:00,
2013-10-17 17:36:00,62.8,56.5,29.91,North,0,2.1,2.4,80,0.00,,,0.08,WUHU21623XXSP,2013-10-17 21:36:00,
2013-10-17 17:41:00,62.8,56.1,29.91,North,0,1.4,2.4,79,0.00,,,0.08,WUHU21623XXSP,2013-10-17 21:41:00,
2013-10-17 17:46:00,62.6,55.9,29.92,WNW,292,0.0,2.4,79,0.00,,,0.08,WUHU21623XXSP,2013-10-17 21:46:00,
2013-10-17 17:51:00,62.6,56.3,29.92,WNW,292,0.0,1.7,80,0.00,,,0.08,WUHU21623XXSP,2013-10-17 21:51:00,
2013-10-17 17:56:00,62.6,56.6,29.92,North,0,0.0,0.0,81,0.00,,,0.08,WUHU21623XXSP,2013-10-17 21:56:00,
2013-10-17 18:01:00,62.2,55.6,29.92,North,0,1.7,3.0,79,0.00,,,0.08,WUHU21623XXSP,2013-10-17 22:01:00,
2013-10-17 18:06:00,61.7,55.5,29.93,North,0,0.0,3.0,80,0.00,,,0.08,WUHU21623XXSP,2013-10-17 22:06:00,
2013-10-17 18:11:00,61.5,55.0,29.93,WNW,292,0.0,3.0,79,0.00,,,0.08,WUHU21623XXSP,2013-10-17 22:11:00,
2013-10-17 18:16:00,61.3,55.2,29.93,North,0,0.0,2.4,80,0.00,,,0.08,WUHU21623XXSP,2013-10-17 22:16:00,
2013-10-17 18:21:00,61.2,55.0,29.93,WNW,292,0.0,1.9,80,0.00,,,0.08,WUHU21623XXSP,2013-10-17 22:21:00,
2013-10-17 18:26:00,61.2,55.0,29.93,WNW,292,0.0,1.3,80,0.00,,,0.08,WUHU21623XXSP,2013-10-17 22:26:00,
2013-10-17 18:31:00,61.0,55.2,29.93,WNW,292,1.4,1.7,81,0.00,,,0.08,WUHU21623XXSP,2013-10-17 22:31:00,
2013-10-17 18:36:00,60.6,54.8,29.93,WNW,292,0.0,1.7,81,0.00,,,0.08,WUHU21623XXSP,2013-10-17 22:36:00,
2013-10-17 18:41:00,60.6,54.8,29.93,WNW,292,0.0,1.7,81,0.00,,,0.08,WUHU21623XXSP,2013-10-17 22:41:00,
2013-10-17 18:47:00,60.4,54.6,29.94,WNW,292,0.0,0.0,81,0.00,,,0.08,WUHU21623XXSP,2013-10-17 22:47:00,
2013-10-17 18:52:00,60.1,54.3,29.94,WNW,292,0.0,0.0,81,0.00,,,0.08,WUHU21623XXSP,2013-10-17 22:52:00,
2013-10-17 18:57:00,60.1,54.3,29.94,WNW,292,0.0,0.0,81,0.00,,,0.08,WUHU21623XXSP,2013-10-17 22:57:00,
2013-10-17 19:02:00,59.9,54.1,29.95,WNW,292,0.0,0.0,81,0.00,,,0.08,WUHU21623XXSP,2013-10-17 23:02:00,
2013-10-17 19:07:00,59.7,53.9,29.95,West,270,0.0,0.0,81,0.00,,,0.08,WUHU21623XXSP,2013-10-17 23:07:00,
2013-10-17 19:12:00,59.4,53.9,29.95,WNW,292,0.0,0.0,82,0.00,,,0.08,WUHU21623XXSP,2013-10-17 23:12:00,
2013-10-17 19:18:00,59.2,53.7,29.95,WNW,292,0.0,0.0,82,0.00,,,0.08,WUHU21623XXSP,2013-10-17 23:18:00,
2013-10-17 19:23:00,58.8,53.0,29.96,WNW,292,0.9,1.7,81,0.00,,,0.08,WUHU21623XXSP,2013-10-17 23:23:00,
2013-10-17 19:28:00,58.8,52.7,29.96,WNW,292,0.0,1.7,80,0.00,,,0.08,WUHU21623XXSP,2013-10-17 23:28:00,
2013-10-17 19:33:00,58.8,53.0,29.96,North,0,0.0,1.0,81,0.00,,,0.08,WUHU21623XXSP,2013-10-17 23:33:00,
2013-10-17 19:38:00,58.8,52.7,29.97,WNW,292,1.4,1.7,80,0.00,,,0.08,WUHU21623XXSP,2013-10-17 23:38:00,
2013-10-17 19:43:00,58.8,52.3,29.97,WNW,292,0.9,1.9,79,0.00,,,0.08,WUHU21623XXSP,2013-10-17 23:43:00,
2013-10-17 19:48:00,58.8,52.7,29.97,North,0,0.0,1.9,80,0.00,,,0.08,WUHU21623XXSP,2013-10-17 23:48:00,
2013-10-17 19:53:00,58.8,52.7,29.97,WNW,292,0.0,1.7,80,0.00,,,0.08,WUHU21623XXSP,2013-10-17 23:53:00,
2013-10-17 19:58:00,58.6,52.5,29.97,WNW,292,0.0,1.7,80,0.00,,,0.08,WUHU21623XXSP,2013-10-17 23:58:00,
2013-10-17 20:03:00,58.6,52.8,29.97,NNE,22,0.0,0.0,81,0.00,,,0.08,WUHU21623XXSP,2013-10-18 00:03:00,
2013-10-17 20:08:00,58.5,52.3,29.97,North,0,0.0,0.0,80,0.00,,,0.08,WUHU21623XXSP,2013-10-18 00:08:00,
2013-10-17 20:13:00,58.5,52.7,29.97,North,0,0.0,0.0,81,0.00,,,0.08,WUHU21623XXSP,2013-10-18 00:13:00,
2013-10-17 20:18:00,58.3,52.8,29.97,WNW,292,0.0,0.0,82,0.00,,,0.08,WUHU21623XXSP,2013-10-18 00:18:00,
2013-10-17 20:23:00,58.1,52.6,29.97,WNW,292,0.0,0.0,82,0.00,,,0.08,WUHU21623XXSP,2013-10-18 00:23:00,
2013-10-17 20:28:00,57.9,52.4,29.97,WNW,292,0.0,0.0,82,0.00,,,0.08,WUHU21623XXSP,2013-10-18 00:28:00,
2013-10-17 20:33:00,57.6,52.1,29.98,NNE,22,0.0,0.0,82,0.00,,,0.08,WUHU21623XXSP,2013-10-18 00:33:00,
2013-10-17 20:39:00,57.2,51.7,29.98,East,90,0.0,0.0,82,0.00,,,0.08,WUHU21623XXSP,2013-10-18 00:39:00,
2013-10-17 20:44:00,56.5,51.0,29.98,East,90,0.0,0.0,82,0.00,,,0.08,WUHU21623XXSP,2013-10-18 00:44:00,
2013-10-17 20:49:00,56.1,51.0,29.98,ESE,112,0.0,0.0,83,0.00,,,0.08,WUHU21623XXSP,2013-10-18 00:49:00,
2013-10-17 20:54:00,55.9,51.1,29.98,East,90,0.0,0.0,84,0.00,,,0.08,WUHU21623XXSP,2013-10-18 00:54:00,
2013-10-17 20:59:00,55.6,51.1,29.98,NNE,22,0.0,1.3,85,0.00,,,0.08,WUHU21623XXSP,2013-10-18 00:59:00,
2013-10-17 21:04:00,55.4,50.9,29.99,East,90,0.0,1.3,85,0.00,,,0.08,WUHU21623XXSP,2013-10-18 01:04:00,
2013-10-17 21:17:00,54.9,50.7,29.99,NNE,22,0.0,0.0,86,0.00,,,0.08,WUHU21623XXSP,2013-10-18 01:17:00,
2013-10-17 21:27:00,54.5,50.4,29.99,East,90,0.0,0.0,86,0.00,,,0.08,WUHU21623XXSP,2013-10-18 01:27:00,
2013-10-17 21:32:00,54.1,50.3,29.99,ESE,112,0.0,0.0,87,0.00,,,0.08,WUHU21623XXSP,2013-10-18 01:32:00,
2013-10-17 21:37:00,53.4,49.6,29.99,NNE,22,0.0,0.0,87,0.00,,,0.08,WUHU21623XXSP,2013-10-18 01:37:00,
2013-10-17 21:42:00,53.2,49.4,30.00,ESE,112,0.0,0.0,87,0.00,,,0.08,WUHU21623XXSP,2013-10-18 01:42:00,
2013-10-17 21:47:00,52.9,49.1,30.00,ESE,112,0.0,0.0,87,0.00,,,0.08,WUHU21623XXSP,2013-10-18 01:47:00,
2013-10-17 21:52:00,52.5,49.0,29.99,East,90,0.0,0.0,88,0.00,,,0.08,WUHU21623XXSP,2013-10-18 01:52:00,
2013-10-17 21:57:00,52.3,48.8,30.00,East,90,0.0,0.0,88,0.00,,,0.08,WUHU21623XXSP,2013-10-18 01:57:00,
2013-10-17 22:03:00,52.2,48.7,30.00,NNE,22,0.0,0.0,88,0.00,,,0.08,WUHU21623XXSP,2013-10-18 02:03:00,
2013-10-17 22:08:00,51.8,48.3,30.00,ESE,112,0.0,0.0,88,0.00,,,0.08,WUHU21623XXSP,2013-10-18 02:08:00,
2013-10-17 22:13:00,51.6,48.1,30.00,ESE,112,0.0,0.0,88,0.00,,,0.08,WUHU21623XXSP,2013-10-18 02:13:00,
2013-10-17 22:18:00,51.4,47.9,30.00,ESE,112,0.0,0.0,88,0.00,,,0.08,WUHU21623XXSP,2013-10-18 02:18:00,
2013-10-17 22:23:00,51.1,47.6,30.00,ESE,112,0.0,0.0,88,0.00,,,0.08,WUHU21623XXSP,2013-10-18 02:23:00,
2013-10-17 22:28:00,50.9,47.4,30.00,ESE,112,0.0,0.0,88,0.00,,,0.08,WUHU21623XXSP,2013-10-18 02:28:00,
2013-10-17 22:33:00,50.5,47.4,30.00,East,90,0.0,0.0,89,0.00,,,0.08,WUHU21623XXSP,2013-10-18 02:33:00,
2013-10-17 22:38:00,50.5,47.4,30.00,ESE,112,0.0,0.0,89,0.00,,,0.08,WUHU21623XXSP,2013-10-18 02:38:00,
2013-10-17 22:43:00,50.4,47.2,30.00,ESE,112,0.0,0.0,89,0.00,,,0.08,WUHU21623XXSP,2013-10-18 02:43:00,
2013-10-17 22:48:00,50.2,47.0,30.00,ESE,112,0.0,0.0,89,0.00,,,0.08,WUHU21623XXSP,2013-10-18 02:48:00,
2013-10-17 22:53:00,50.2,47.0,30.00,South,180,0.0,0.0,89,0.00,,,0.08,WUHU21623XXSP,2013-10-18 02:53:00,
2013-10-17 22:59:00,50.2,47.0,30.00,South,180,0.0,0.0,89,0.00,,,0.08,WUHU21623XXSP,2013-10-18 02:59:00,
2013-10-17 23:04:00,50.2,47.0,30.00,East,90,0.0,0.0,89,0.00,,,0.08,WUHU21623XXSP,2013-10-18 03:04:00,
2013-10-17 23:09:00,49.8,46.6,30.00,East,90,0.0,0.0,89,0.00,,,0.08,WUHU21623XXSP,2013-10-18 03:09:00,
2013-10-17 23:14:00,49.8,46.6,30.00,ESE,112,0.0,0.0,89,0.00,,,0.08,WUHU21623XXSP,2013-10-18 03:14:00,
2013-10-17 23:19:00,49.6,46.5,30.00,East,90,0.0,0.0,89,0.00,,,0.08,WUHU21623XXSP,2013-10-18 03:19:00,
2013-10-17 23:24:00,49.6,46.5,30.00,East,90,0.0,0.0,89,0.00,,,0.08,WUHU21623XXSP,2013-10-18 03:24:00,
2013-10-17 23:29:00,49.3,46.1,30.00,East,90,0.0,0.0,89,0.00,,,0.08,WUHU21623XXSP,2013-10-18 03:29:00,
2013-10-17 23:34:00,49.3,46.1,30.00,ESE,112,0.0,0.0,89,0.00,,,0.08,WUHU21623XXSP,2013-10-18 03:34:00,
2013-10-17 23:39:00,49.3,46.1,30.00,East,90,0.0,0.0,89,0.00,,,0.08,WUHU21623XXSP,2013-10-18 03:39:00,
2013-10-17 23:44:00,49.3,46.1,30.00,East,90,0.0,0.0,89,0.00,,,0.08,WUHU21623XXSP,2013-10-18 03:44:00,
2013-10-17 23:49:00,49.1,46.3,30.00,East,90,0.0,0.0,90,0.00,,,0.08,WUHU21623XXSP,2013-10-18 03:49:00,
2013-10-17 23:54:00,48.9,46.1,30.00,East,90,0.0,0.0,90,0.00,,,0.08,WUHU21623XXSP,2013-10-18 03:54:00,
2013-10-17 23:59:00,48.7,46.0,30.00,East,90,0.0,0.0,90,0.00,,,0.08,WUHU21623XXSP,2013-10-18 03:59:00,